South Beach, OR

12:17 PM PST on January 24, 2017 (GMT -0800)
Newport Municipal

Weather History for KONP - March, 2013

Change the Weather History Date:

Tuesday, March 19, 2013

  Actual Average Record
Temperature  
Mean Temperature 48 °F -  
Max Temperature 53 °F 51 °F 64 °F (1999)
Min Temperature 42 °F 41 °F 32 °F (2006)
Degree Days  
Heating Degree Days 18    
Moisture  
Dew Point 41 °F    
Average Humidity 79    
Maximum Humidity 100    
Minimum Humidity 58    
Precipitation  
Precipitation 0.57 in - - ()
Sea Level Pressure  
Sea Level Pressure 29.94 in    
Wind  
Wind Speed 10 mph (SE)    
Max Wind Speed 31 mph    
Max Gust Speed 46 mph    
Visibility 8 miles    
Events Rain    
Averages and records for this station are not official NWS values.
T = Trace of Precipitation, MM = Missing Value Source: NWS Daily Summary

Daily Weather History Graph

Daily Weather History Graph

Search for Another Location

Airport or City:

Trip Planner

Search our weather history database for the weather conditions in past years. The results will help you decide how hot, cold, wet, or windy it might be!

Date:

Astronomy

Mar. 19, 2013 Rise Set
Actual Time 7:20 AM PDT 7:27 PM PDT
Civil Twilight 6:51 AM PDT 7:56 PM PDT
Nautical Twilight 6:17 AM PDT 8:31 PM PDT
Astronomical Twilight 5:42 AM PDT 9:06 PM PDT
Moon 12:02 PM PDT (3/19) 2:32 AM PDT (3/19)
Length of Visible Light 13h 05m
Length of Day
12h 07m
Waxing Crescent, 51% of the Moon is Illuminated
Mar 19
Waxing Crescent
Mar 27
Full
Apr 2
Last Quarter
Apr 10
New
Apr 18
First Quarter

Hourly Weather History & Observations

Time (PDT) Temp. Windchill Dew Point Humidity Pressure Visibility Wind Dir Wind Speed Gust Speed Precip Events Conditions
12:15 AM 44.6 °F 40.2 °F 35.6 °F 71% 30.12 in 10.0 mi East 8.1 mph - N/A   Clear
12:35 AM 44.6 °F 40.2 °F 35.6 °F 71% 30.11 in 10.0 mi East 8.1 mph - N/A   Clear
12:55 AM 44.6 °F 39.7 °F 35.6 °F 71% 30.11 in 10.0 mi East 9.2 mph - N/A   Clear
1:15 AM 44.6 °F 40.2 °F 35.6 °F 71% 30.10 in 10.0 mi East 8.1 mph - N/A   Scattered Clouds
1:35 AM 44.6 °F 38.4 °F 35.6 °F 71% 30.09 in 10.0 mi East 12.7 mph 19.6 mph N/A   Mostly Cloudy
1:55 AM 46.4 °F 39.8 °F 35.6 °F 66% 30.08 in 10.0 mi East 16.1 mph 25.3 mph N/A   Scattered Clouds
2:15 AM 44.6 °F 37.8 °F 33.8 °F 66% 30.08 in 10.0 mi East 15.0 mph 20.7 mph N/A   Clear
2:35 AM 44.6 °F 37.4 °F 35.6 °F 71% 30.08 in 10.0 mi East 16.1 mph 20.7 mph N/A   Scattered Clouds
2:55 AM 44.6 °F 37.2 °F 35.6 °F 71% 30.07 in 10.0 mi East 17.3 mph 23.0 mph N/A   Scattered Clouds
3:15 AM 44.6 °F 37.4 °F 35.6 °F 71% 30.07 in 10.0 mi East 16.1 mph 20.7 mph N/A   Scattered Clouds
3:35 AM 44.6 °F 38.1 °F 35.6 °F 71% 30.06 in 10.0 mi East 13.8 mph 19.6 mph N/A   Mostly Cloudy
3:55 AM 44.6 °F 38.4 °F 35.6 °F 71% 30.06 in 10.0 mi East 12.7 mph - N/A   Overcast
4:15 AM 44.6 °F - 35.6 °F 71% 30.06 in 10.0 mi Calm Calm - N/A   Overcast
4:55 AM 44.6 °F 42.2 °F 35.6 °F 71% 30.05 in 10.0 mi East 4.6 mph - N/A   Scattered Clouds
5:15 AM 42.8 °F 41.1 °F 35.6 °F 76% 30.05 in 10.0 mi ESE 3.5 mph - N/A   Mostly Cloudy
5:35 AM 42.8 °F 40.1 °F 35.6 °F 76% 30.05 in 10.0 mi East 4.6 mph - N/A   Overcast
5:55 AM 42.8 °F 38.6 °F 35.6 °F 76% 30.04 in 10.0 mi East 6.9 mph - N/A   Overcast
6:15 AM 44.6 °F 40.2 °F 35.6 °F 71% 30.04 in 10.0 mi East 8.1 mph - N/A   Overcast
6:35 AM 44.6 °F 41.4 °F 35.6 °F 71% 30.04 in 10.0 mi East 5.8 mph - N/A   Overcast
6:55 AM 42.8 °F 38.0 °F 35.6 °F 76% 30.04 in 10.0 mi East 8.1 mph - N/A   Overcast
7:15 AM 44.6 °F 39.7 °F 35.6 °F 71% 30.04 in 10.0 mi East 9.2 mph - N/A   Overcast
7:35 AM 42.8 °F 37.0 °F 35.6 °F 76% 30.03 in 10.0 mi East 10.4 mph - N/A   Overcast
7:55 AM 42.8 °F 37.5 °F 35.6 °F 76% 30.03 in 10.0 mi East 9.2 mph - N/A   Overcast
8:15 AM 44.6 °F 40.2 °F 35.6 °F 71% 30.03 in 10.0 mi East 8.1 mph - N/A   Overcast
8:35 AM 44.6 °F 40.7 °F 37.4 °F 76% 30.03 in 10.0 mi East 6.9 mph - N/A   Overcast
8:55 AM 44.6 °F 40.7 °F 37.4 °F 76% - 10.0 mi East 6.9 mph - N/A   Overcast
9:15 AM 44.6 °F 41.4 °F 37.4 °F 76% 30.02 in 10.0 mi East 5.8 mph - N/A   Overcast
9:35 AM 46.4 °F 43.5 °F 37.4 °F 71% 30.03 in 10.0 mi ESE 5.8 mph - N/A   Overcast
9:55 AM 44.6 °F 41.4 °F 39.2 °F 81% 30.02 in 10.0 mi East 5.8 mph - N/A Rain Light Rain
10:15 AM 46.4 °F 43.5 °F 41.0 °F 81% 30.02 in 10.0 mi East 5.8 mph - N/A Rain Light Rain
10:35 AM 46.4 °F 43.5 °F 41.0 °F 81% 30.01 in 10.0 mi East 5.8 mph - N/A   Light Drizzle
10:55 AM 46.4 °F 43.5 °F 41.0 °F 81% 30.01 in 10.0 mi East 5.8 mph - N/A Rain Light Rain
11:15 AM 48.2 °F - 41.0 °F 76% 30.00 in 10.0 mi East 8.1 mph - N/A Rain Light Rain
11:35 AM 50.0 °F - 42.8 °F 76% 29.99 in 10.0 mi East 8.1 mph - N/A   Light Drizzle
11:55 AM 50.0 °F - 42.8 °F 76% 29.98 in 10.0 mi East 9.2 mph - N/A   Overcast
12:15 PM 50.0 °F - 44.6 °F 82% 29.98 in 10.0 mi East 9.2 mph - N/A   Overcast
12:35 PM 50.0 °F - 42.8 °F 76% 29.98 in 10.0 mi Calm Calm - N/A   Overcast
12:55 PM 51.8 °F - 42.8 °F 71% 29.97 in 10.0 mi Calm Calm - N/A   Overcast
1:15 PM 51.8 °F - 41.0 °F 67% 29.96 in 10.0 mi SSE 4.6 mph - N/A   Overcast
1:35 PM 51.8 °F - 41.0 °F 67% 29.95 in 10.0 mi SE 6.9 mph - N/A   Overcast
1:55 PM 53.6 °F - 39.2 °F 58% 29.94 in 10.0 mi SSE 4.6 mph - N/A   Overcast
2:15 PM 53.6 °F - 41.0 °F 62% 29.94 in 10.0 mi SSE 5.8 mph - N/A   Overcast
2:35 PM 53.6 °F - 41.0 °F 62% 29.93 in 10.0 mi South 9.2 mph - N/A Rain Light Rain
2:55 PM 53.6 °F - 39.2 °F 58% 29.93 in 10.0 mi South 16.1 mph 21.9 mph N/A   Overcast
3:15 PM 51.8 °F - 39.2 °F 62% 29.92 in 10.0 mi South 19.6 mph 27.6 mph N/A   Overcast
3:35 PM 51.8 °F - 41.0 °F 67% 29.92 in 10.0 mi SSW 21.9 mph 28.8 mph N/A Rain Light Rain
3:55 PM 50.0 °F - 41.0 °F 71% 29.91 in 10.0 mi South 19.6 mph 31.1 mph N/A   Overcast
4:15 PM 46.4 °F 40.4 °F 42.8 °F 87% 29.90 in 5.0 mi South 13.8 mph 23.0 mph 0.01 in Rain Rain
4:35 PM 46.4 °F 39.8 °F 41.0 °F 81% 29.89 in 10.0 mi South 16.1 mph 27.6 mph 0.02 in Rain Light Rain
4:55 PM 46.4 °F 40.7 °F 42.8 °F 87% 29.87 in 10.0 mi South 12.7 mph 26.5 mph 0.02 in   Light Drizzle
5:15 PM 46.4 °F 45.2 °F 42.8 °F 87% 29.85 in 10.0 mi SSE 3.5 mph - N/A Rain Light Rain
5:35 PM 46.4 °F 45.2 °F 44.6 °F 93% 29.83 in 10.0 mi SE 3.5 mph - 0.01 in Rain Light Rain
5:55 PM 46.4 °F - 44.6 °F 93% 29.83 in 4.0 mi Calm Calm - 0.04 in Rain Light Rain
6:15 PM 46.4 °F 45.2 °F 44.6 °F 93% 29.82 in 5.0 mi SE 3.5 mph - 0.02 in Rain Rain
6:35 PM 46.4 °F 43.5 °F 44.6 °F 93% 29.80 in 4.0 mi ESE 5.8 mph - 0.04 in Rain Rain
6:55 PM 46.4 °F 43.5 °F 44.6 °F 93% 29.78 in 4.0 mi SE 5.8 mph - 0.04 in   Drizzle
7:15 PM 46.4 °F 44.3 °F 44.6 °F 93% 29.77 in 4.0 mi SE 4.6 mph - 0.05 in Rain Light Rain
7:35 PM 46.4 °F 43.5 °F 46.4 °F 100% 29.76 in 5.0 mi SSE 5.8 mph - 0.08 in Rain Rain
7:55 PM 48.2 °F - 46.4 °F 93% 29.75 in 5.0 mi SSE 6.9 mph - 0.11 in Rain Rain
8:15 PM 48.2 °F - 46.4 °F 93% 29.75 in 4.0 mi SSE 5.8 mph - 0.03 in Rain Rain
8:35 PM 48.2 °F - 46.4 °F 93% 29.74 in 5.0 mi SSE 5.8 mph - 0.05 in Rain Heavy Rain
8:55 PM 48.2 °F - 46.4 °F 93% 29.72 in 4.0 mi South 4.6 mph - 0.09 in Rain Rain
9:15 PM 48.2 °F - 46.4 °F 93% 29.72 in 4.0 mi South 6.9 mph - 0.02 in Rain Heavy Rain
9:35 PM 50.0 °F - 48.2 °F 94% 29.71 in 3.0 mi South 19.6 mph 29.9 mph 0.08 in Rain Rain
9:55 PM 50.0 °F - 50.0 °F 100% 29.71 in 4.0 mi SSW 19.6 mph 27.6 mph 0.12 in Rain Rain
10:35 PM 50.0 °F - 50.0 °F 100% 29.70 in 3.0 mi SSW 19.6 mph 23.0 mph 0.13 in Rain Rain
10:55 PM 50.0 °F - 50.0 °F 100% 29.69 in 3.0 mi South 20.7 mph 34.5 mph 0.14 in Rain Light Rain
11:15 PM 50.0 °F - 50.0 °F 100% 29.70 in 3.0 mi SSW 26.5 mph 40.3 mph 0.01 in Rain Light Rain
11:35 PM 50.0 °F - 48.2 °F 94% 29.70 in 5.0 mi South 27.6 mph 34.5 mph 0.01 in   Drizzle
11:55 PM 50.0 °F - 50.0 °F 100% 29.69 in 4.0 mi SSW 31.1 mph 46.0 mph 0.01 in Rain Light Rain